Flag for Brunei Weather past 2 weeks in Bandar Seri Begawan, Brunei

Now
86 °F

Passing clouds.


Feels Like: 97 °F
Forecast: 77 / 89 °F
Wind: 6 mph from Northwest

Location: Brunei Airport


UV Index: 7 (High)

Visibility: 6 mi


Pressure: 29.77 "Hg

Humidity: 75%

Dew point: 77 °F

Location of Bandar Seri BegawanLocation

Historic Weather in Bandar Seri Begawan

°F

Bandar Seri Begawan temperature yesterday

Maximum temperature yesterday: 91 °F (at 11:30 AM)
Minimum temperature yesterday: 77 °F (at 1:00 AM)
Average temperature yesterday: 83 °F

Past Weeks' High & Low Weather Summary

 TemperatureHumidityPressure
High91 °F (Apr 16, 11:30 AM)100% (Apr 3, 4:00 AM)29.95 "Hg (Apr 3, 4:00 AM)
Low75 °F (Apr 13, 12:00 AM)49% (Apr 15, 1:30 PM)29.74 "Hg (Apr 2, 6:00 PM)
Average82 °F84%29.84 "Hg
* Reported Apr 2 6:00 PM — Apr 17 6:00 PM, Bandar Seri Begawan, Weather by CustomWeather, © 2014

Note: Actual official high and low records may vary slightly from our data, if they occured in-between our weather recording intervals... More about our weather records

Advertising

Historic Weather Conditions — Data for Previous 24 hours

 ConditionsComfort  
Time TempWeatherWind HumidityBarometerVisibility
6:00 PM
Apr 17
86 °FPartly sunny.7 mph75%29.77 "Hg6 mi
5:30 PM86 °FPartly sunny.8 mph70%29.77 "Hg6 mi
5:00 PM88 °FPartly sunny.10 mph66%29.77 "HgN/A
4:30 PM88 °FPartly sunny.8 mph66%29.74 "HgN/A
4:00 PM90 °FPartly sunny.12 mph59%29.74 "HgN/A
3:30 PM90 °FPartly sunny.12 mph59%29.77 "HgN/A
3:00 PM90 °FPartly sunny.10 mph59%29.77 "HgN/A
2:30 PM90 °FPartly sunny.8 mph59%29.77 "HgN/A
2:00 PM91 °FPartly sunny.7 mph56%29.77 "HgN/A
1:30 PM91 °FPartly sunny.8 mph56%29.80 "HgN/A
1:00 PM91 °FPartly sunny.8 mph56%29.80 "HgN/A
12:30 PM91 °FPartly sunny.9 mph56%29.80 "HgN/A
12:00 PM91 °FPartly sunny.8 mph56%29.83 "HgN/A
11:30 AM90 °FPartly sunny.6 mph63%29.83 "HgN/A
11:00 AM90 °FPartly sunny.3 mph59%29.83 "HgN/A
10:30 AM90 °FPartly sunny.5 mph59%29.86 "HgN/A
10:00 AM88 °FPartly sunny.3 mph62%29.86 "HgN/A
9:30 AM88 °FPartly sunny.5 mph62%29.86 "HgN/A
9:00 AM86 °FPartly sunny.5 mph75%29.83 "HgN/A
8:30 AM84 °FPartly sunny.2 mph79%29.83 "HgN/A
8:00 AM81 °FPartly sunny.2 mph84%29.83 "HgN/A
7:30 AM79 °FPartly sunny.2 mph89%29.83 "HgN/A
7:00 AM77 °FPartly sunny.1 mph94%29.80 "HgN/A
6:30 AM77 °FBroken clouds.3 mph94%29.80 "HgN/A
6:00 AM77 °FPartly cloudy.2 mph94%29.80 "HgN/A
5:30 AM77 °FPartly cloudy.3 mph94%29.80 "HgN/A
5:00 AM77 °FPartly cloudy.2 mph94%29.80 "HgN/A
4:30 AM77 °FPartly cloudy.2 mph94%29.80 "HgN/A
4:00 AM77 °FPartly cloudy.2 mph94%29.77 "HgN/A
3:30 AM77 °FPartly cloudy.2 mph94%29.77 "HgN/A
3:00 AM79 °FPartly cloudy.3 mph89%29.77 "HgN/A
2:30 AM79 °FPartly cloudy.3 mph89%29.80 "HgN/A
2:00 AM79 °FPartly cloudy.5 mph89%29.80 "HgN/A
1:30 AM79 °FPassing clouds.2 mph89%29.80 "HgN/A
1:00 AM79 °FPassing clouds.3 mph89%29.83 "HgN/A
12:30 AM81 °FPassing clouds.3 mph84%29.86 "HgN/A
12:00 AM81 °FPassing clouds.2 mph84%29.86 "HgN/A
11:30 PM
Apr 16
81 °FPassing clouds.2 mph84%29.86 "HgN/A
11:00 PM81 °FPassing clouds.2 mph84%29.86 "HgN/A
10:30 PM81 °FPartly cloudy.3 mph89%29.86 "HgN/A
10:00 PM81 °FPartly cloudy.5 mph89%29.86 "HgN/A
9:00 PM82 °FPassing clouds.2 mph84%29.83 "HgN/A
8:30 PM82 °FPassing clouds.5 mph84%29.83 "HgN/A
8:00 PM84 °FPassing clouds.2 mph79%29.83 "HgN/A
7:30 PM84 °FPassing clouds.3 mph79%29.80 "HgN/A
7:00 PM84 °FPassing clouds.5 mph79%29.80 "HgN/A
Weather by CustomWeather, © 2014

See weather overview